GSAT-9

Last updated on Thu Mar 05 2026 00:02:58 GMT+0000 (Coordinated Universal Time)

1 42695U 17024A 26063.58476924 -.00000297 00000+0 00000+0 0 9999 2 42695 0.1044 281.8024 0002030 64.4246 123.9433 1.00271153 32250
UTC large
Height (km)
Speed (km/s)
/
Latitude / Longitude
Inclination (degrees)
Orbital Period (minutes)
Azimuth
Elevation
Range (km)
Doppler Factor

Next 0 passes for location: London (51.5072 / 0.1276)

Sorry there are no passes over London.